User: anonymous   Login
Location: Kimberly
(42.5380°N, 114.3640°W)
Time: 19:38:36
(UTC-06:00)
Language:

N. Korean satellite - Orbit

View from above orbital plane
View from above orbital plane
View from above satellite
View from above satellite

Ground track
Ground track

The orbit data is extracted from the following two-line orbital elements,

1 39026U 12072A   18232.97200896 +.00001566 +00000-0 +60534-4 0  9999
2 39026 097.2107 241.1393 0040903 093.0582 267.5339 15.26918149315486
Epoch (UTC): 20 August 2018 23:19:41
Eccentricity: 0.0040903
inclination: 97.2107°
perigee height: 457 km
apogee height: 513 km
right ascension of ascending node: 241.1393°
argument of perigee: 93.0582°
revolutions per day: 15.26918149
mean anomaly at epoch: 267.5339°
orbit number at epoch: 31548

The dashed part of the orbit path shows where the satellite is in the earth's shadow,  

DLR